Location: Morrison Observatory
(41.7012°N, 86.2315°W)
Time: 03:10:07
(UTC-05:00)

Daily predictions for brighter satellites

Satellite Brightness Start Highest point End
(mag) Time Altitude Azimuth Time Altitude Azimuth Time Altitude Azimuth
CENTAUR R/B 4.1 04:11:32 31° ENE 04:11:32 31° ENE 04:15:38 10° NE
Cosmos 2333 Rocket 4.2 04:56:53 17° NNE 04:56:53 17° NNE 04:58:08 10° NNE
Cosmos 2297 4.4 04:54:46 51° E 04:54:46 51° E 04:59:37 10° SE
Cosmos 2278 Rocket 3.9 05:14:01 21° S 05:14:01 21° S 05:15:48 10° S
Cosmos 923 Rocket 4.4 05:13:21 60° NE 05:13:21 60° NE 05:17:47 10° NNE
SL-16 R/B 2.3 05:17:23 61° S 05:18:20 75° ESE 05:24:00 10° NNE
Cosmos 292 Rocket 4.2 05:23:40 27° S 05:26:12 59° ESE 05:30:57 10° NNE
Cosmos 1812 3.8 05:28:27 43° ESE 05:28:27 43° ESE 05:31:37 10° SSE
Timation 1 Rocket 4.2 05:30:47 65° NW 05:31:43 82° WSW 05:37:43 10° SSE
USA 215 3.1 05:31:12 10° NE 05:37:46 88° NW 05:40:47 35° SW
Cosmos 1680 Rocket 3.3 05:38:54 36° SSW 05:41:04 84° WNW 05:46:20 10° NNE
SL-08 ROCKET BODY 4.5 05:35:47 10° S 05:41:45 74° E 05:47:39 10° N
Cosmos 2181 Rocket 4.0 05:42:27 43° NW 05:44:10 56° W 05:50:21 10° SSW
SKYMED 2 4.1 05:40:48 10° SSE 05:45:03 57° ENE 05:47:40 22° N
Cosmos 2151 Rocket 3.6 05:40:46 10° S 05:45:17 79° E 05:49:47 10° N
TIMED 4.3 05:47:32 79° SW 05:47:32 79° SW 05:51:48 10° SSE
Cosmos 2237 Rocket 3.6 05:52:17 21° NNW 05:52:17 21° NNW 05:54:43 10° N
CZ-3 R/B 4.1 05:47:10 10° SW 05:53:58 16° S 05:57:42 10° SE
Feng Yun 1-1 Rocket 4.3 05:51:19 10° N 05:56:48 53° WNW 06:02:06 10° SW
NOAA 6 3.9 05:54:46 10° N 05:59:54 80° WNW 06:05:02 10° SSW
Cosmos 2112 Rocket 3.9 05:54:46 10° SSW 05:59:57 66° WNW 06:05:09 10° NNE
CENTAUR R/B 2.9 05:58:45 39° WNW 06:00:07 44° NW 06:06:45 10° NNE
Meteor 1-18 Rocket 4.3 05:58:48 15° NNW 06:03:38 63° W 06:09:28 10° S
Tiangong 2 1.1 06:05:56 74° ENE 06:05:56 74° ENE 06:08:52 10° ENE
Cosmos 1536 Rocket 3.4 06:06:16 25° NNW 06:08:47 70° W 06:13:10 10° S
Gbstr 26 Del rocket 3.8 06:08:43 35° WSW 06:09:09 36° SW 06:12:58 10° SSE
CSL-04 Rocket 4.4 06:05:10 10° NNE 06:10:39 57° ESE 06:16:03 10° S
Cosmos 1238 Rocket 3.5 06:08:45 31° NW 06:10:49 52° W 06:16:13 10° SSW
Cosmos 1603 3.8 06:10:04 10° SSW 06:15:46 82° ESE 06:21:28 10° NNE
ADEOS II 4.1 06:11:57 10° NNW 06:12:25 12° NNW 06:12:25 12° NNW
Cosmos 2369 Rocket 3.4 06:13:16 10° NNW 06:18:41 41° ENE 06:24:03 10° SE
Lacrosse 5 rocket 3.5 06:19:05 13° NNW 06:19:05 13° NNW 06:20:52 10° NNE
Meteor 1-20 Rocket 4.3 06:21:03 10° SSW 06:26:26 48° WNW 06:31:48 10° N
Cosmos 1025 Rocket 4.4 06:22:17 10° N 06:26:27 40° ENE 06:30:34 10° SSE
Okean 1 Rocket 3.1 06:23:31 10° S 06:27:56 83° E 06:32:20 10° N
PSLV R/B 3.3 06:29:19 35° W 06:30:35 70° S 06:33:56 10° ESE
COSMO-SKYMED 1 3.0 06:29:02 10° S 06:33:07 41° W 06:36:15 16° NNW
Lacrosse 5 2.6 06:28:29 10° SSW 06:33:29 57° SE 06:38:29 10° NE
Cosmos 921 Rocket 3.6 06:31:59 23° NW 06:34:14 38° W 06:38:25 10° SSW
Okean 1-7 Rocket 3.6 06:31:15 10° N 06:35:40 82° E 06:40:03 10° S
Nadezhda 3 Rocket 4.0 06:31:08 10° N 06:37:31 84° W 06:43:53 10° S
Cosmos 2333 Rocket 4.1 06:38:55 11° NNW 06:38:55 11° NNW 06:39:51 10° NNW
Cosmos 2056 Rocket 3.4 06:37:10 10° NNW 06:42:17 64° WSW 06:47:19 10° S
Cosmos 1943 3.8 06:37:33 10° S 06:43:04 62° ESE 06:48:38 10° NNE
Cosmos 192 4.2 06:41:13 10° SSW 06:46:07 74° WNW 06:51:02 10° NNE
Okean 1 4.3 06:45:17 18° NW 06:47:13 26° W 06:50:35 10° SW
USA 129 1.6 06:46:21 10° S 06:48:17 52° W 06:49:06 28° NW
Cosmos 44 Rocket 3.4 06:46:57 10° SSW 06:52:08 90° NNW 06:57:18 10° NNE
Meteor 1-19 Rocket 4.3 06:46:45 10° NNW 06:52:35 69° W 06:58:19 10° S
Cosmos 2341 Rocket 4.0 06:48:24 10° S 06:54:43 80° W 07:01:01 10° N
Meteor 1-11 Rocket 3.8 06:49:37 10° SSW 06:55:27 66° WNW 07:01:12 10° N
IDEFIX/ARIANE 42P 3.3 06:50:37 10° NNE 06:55:45 57° E 07:00:51 10° S
Cosmos 1624 Rocket 4.4 06:51:20 10° NNW 06:56:20 44° WSW 07:01:20 10° S
Okean 2 4.3 06:52:22 10° N 06:56:28 52° E 07:00:31 10° SSE
Cosmos 962 Rocket 4.4 06:50:38 10° SSW 06:56:46 77° W 07:03:03 10° N
Ariane Rocket 3.4 06:55:27 10° N 07:00:10 40° WNW 07:04:52 10° SW
Cosmos 1300 Rocket 4.2 06:56:10 10° SW 07:00:11 34° WNW 07:04:15 10° N
Meteor 1-29 4.0 06:57:57 10° SSE 07:01:12 47° ENE 07:04:27 10° N
SL-16 R/B 3.5 06:59:24 11° W 07:03:05 19° NW 07:07:00 10° N
Cosmos 1602 4.4 06:59:38 10° SW 07:03:14 34° WNW 07:06:53 10° N
ATLAS CENTAUR Rocket 4.2 06:59:46 10° WSW 07:05:17 19° SSW 07:08:26 10° SSE
Cosmos 1346 Rocket 4.2 07:04:26 12° NW 07:06:44 18° W 07:09:26 10° SW
Cosmos 1943 Rocket 3.0 07:07:07 10° NNW 07:12:30 51° ENE 07:17:50 10° SE
SJ-12 3.9 07:10:34 10° N 07:14:44 73° WNW 07:18:52 10° SSW
CZ-4 R/B 1.3 07:11:08 10° N 07:15:03 61° WNW 07:18:54 10° SSW
Cosmos 2263 4.3 07:13:43 10° NNW 07:19:23 88° ENE 07:24:59 10° SSE
USA 215 4.0 07:14:32 10° NE 07:20:17 34° NNW 07:26:02 10° W
Cosmos 1455 Rocket 3.5 07:19:16 10° S 07:23:32 66° E 07:27:50 10° NNE
Meteor 1-23 Rocket 4.3 07:18:11 10° NNW 07:23:38 59° W 07:29:04 10° S
Lacrosse 4 Rocket 3.2 07:20:15 10° N 07:23:49 27° NE 07:27:20 10° ESE
